Location: Montreal
(45.5087°N, 73.5540°W)
Time: 01:56:03
(UTC-04:00)

S-56A Canister/Altair - All Passes

Search period start: 08 June 2026 00:00
Search period end: 18 June 2026 00:00
Orbit: 633 x 2484 km, 38.9° (Epoch: 7 June)

Date Brightness Start Highest point End Pass type
(mag) Time Alt. Az. Time Alt. Az. Time Alt. Az.
8 Jun - 09:55:36 10° SSE 09:59:16 11° SE 10:02:47 10° ESE daylight
8 Jun - 11:51:30 10° SSW 12:03:21 32° SSE 12:12:47 10° E daylight
8 Jun - 13:55:20 10° WSW 14:08:05 53° SSE 14:16:58 10° E daylight
8 Jun - 16:01:31 10° W 16:12:37 57° S 16:19:58 10° ESE daylight
8 Jun - 18:08:09 10° W 18:16:03 33° SSW 18:21:39 10° SSE daylight
9 Jun - 11:16:11 10° SSW 11:27:52 30° SE 11:37:31 10° E daylight
9 Jun - 13:19:27 10° SW 13:32:38 52° SSE 13:42:06 10° E daylight
9 Jun - 15:25:30 10° W 15:37:23 60° S 15:45:18 10° ESE daylight
9 Jun - 17:32:11 10° W 17:41:09 39° SSW 17:47:19 10° SE daylight
9 Jun - 19:41:18 10° WSW 19:43:12 11° SW 19:44:57 10° SSW daylight
10 Jun - 10:41:03 10° SSW 10:52:22 28° SE 11:02:06 10° E daylight
10 Jun - 12:43:39 10° SW 12:57:07 50° SSE 13:07:09 10° E daylight
10 Jun - 14:49:27 10° WSW 15:02:04 61° S 15:10:35 10° ESE daylight
10 Jun - 16:56:11 10° W 17:06:09 44° SSW 17:12:55 10° SE daylight
10 Jun - 19:04:08 10° W 19:08:31 15° SW 19:12:10 10° SSW daylight
11 Jun - 10:06:05 10° S 10:16:53 25° SE 10:26:30 10° E daylight
11 Jun - 12:07:55 10° SW 12:21:33 48° SSE 12:32:07 10° E daylight
11 Jun - 14:13:26 10° WSW 14:26:39 62° S 14:35:49 10° E daylight
11 Jun - 16:20:09 10° W 16:31:04 49° SSW 16:38:24 10° SE daylight
11 Jun - 18:27:40 10° W 18:33:47 20° SW 18:38:33 10° S daylight
12 Jun - 09:31:21 10° S 09:41:24 22° SE 09:50:42 10° E daylight
12 Jun - 11:32:17 10° SW 11:45:57 46° SSE 11:56:58 10° E daylight
12 Jun - 13:37:24 10° WSW 13:51:10 62° S 14:00:57 10° E daylight
12 Jun - 15:44:04 10° W 15:55:53 54° SSW 16:03:51 10° ESE daylight
12 Jun - 17:51:23 10° W 17:58:59 25° SW 18:04:37 10° SSE daylight
13 Jun - 08:56:53 10° S 09:05:57 19° SE 09:14:37 10° E daylight
13 Jun - 10:56:46 10° SW 11:10:18 43° SSE 11:21:43 10° E daylight
13 Jun - 13:01:26 10° WSW 13:15:35 62° S 13:26:02 10° E daylight
13 Jun - 15:08:00 10° W 15:20:36 58° SSW 15:29:11 10° ESE daylight
13 Jun - 17:15:11 10° W 17:24:05 30° SW 17:30:30 10° SSE daylight
14 Jun - 08:22:48 10° SSE 08:30:34 16° SE 08:38:10 10° E daylight
14 Jun - 10:21:23 10° SSW 10:34:40 40° SSE 10:46:22 10° E daylight
14 Jun - 12:25:32 10° WSW 12:39:57 61° S 12:51:01 10° E daylight
14 Jun - 14:31:54 10° W 14:45:12 61° S 14:54:28 10° ESE daylight
14 Jun - 16:39:01 10° W 16:49:06 36° SW 16:56:14 10° SSE daylight
15 Jun - 07:49:21 10° SSE 07:55:13 13° SE 08:01:05 10° ESE daylight
15 Jun - 09:46:09 10° SSW 09:59:02 37° SE 10:10:52 10° E daylight
15 Jun - 11:49:42 10° WSW 12:04:14 59° SSE 12:15:54 10° E daylight
15 Jun - 13:55:49 10° W 14:09:42 63° S 14:19:37 10° ESE daylight
15 Jun - 16:02:50 10° W 16:14:00 41° SSW 16:21:51 10° SE daylight
15 Jun - 18:12:26 10° WSW 18:16:14 13° SW 18:19:33 10° SSW daylight
16 Jun - 07:17:44 10° SE 07:19:56 10° SE 07:22:08 10° ESE daylight
16 Jun - 09:11:05 10° SSW 09:23:25 34° SE 09:35:14 10° E daylight
16 Jun - 11:13:59 10° SW 11:28:30 57° SSE 11:40:42 10° E daylight
16 Jun - 13:19:47 10° W 13:34:07 65° S 13:44:43 10° ESE daylight
16 Jun - 15:26:41 10° W 15:38:48 46° SSW 15:47:20 10° SE daylight
16 Jun - 17:35:16 10° W 17:41:26 17° SW 17:46:28 10° SSW daylight
17 Jun - 08:36:12 10° SSW 08:47:51 30° SE 08:59:26 10° E daylight
17 Jun - 10:38:22 10° SW 10:52:44 55° SSE 11:05:24 10° E daylight
17 Jun - 12:43:48 10° WSW 12:58:27 66° S 13:09:44 10° ESE daylight
17 Jun - 14:50:32 10° W 15:03:29 51° SSW 15:12:43 10° SE daylight
17 Jun - 16:58:34 10° W 17:06:33 22° SW 17:12:46 10° S daylight
